FW7275 Weather Reports


Display with metric or nautical units.
time (UTC)temp
F
wind
direction
speed
MPH
gust
MPH
rain 1hr
in
rain 24hr
in
rain mn
in
humidity
%
barometer
mb
20220518010055 53 356 0.0 0.0 0.00 0.00 0.00 90
20220518005032 53 4 0.0 0.0 0.00 0.00 0.00 89
20220518004038 53 360 0.0 1.0 0.00 0.00 0.00 89
20220518003102 54 5 1.0 4.0 0.00 0.00 0.00 88
20220518002043 54 109 0.0 2.0 0.00 0.00 0.00 88
20220518001031 54 108 0.0 2.0 0.00 0.00 0.00 89
20220518000123 54 110 1.0 2.0 0.00 0.00 0.00 88
20220517235106 55 254 0.0 0.0 0.00 0.00 0.00 87
20220517234053 55 251 0.0 0.0 0.00 0.00 0.00 88
20220517233046 55 251 0.0 1.0 0.00 0.00 0.00 87
20220517232044 55 245 0.0 1.0 0.00 0.00 0.00 88
20220517231044 55 242 0.0 0.0 0.00 0.00 0.00 87
20220517225039 56 254 0.0 0.0 0.00 0.00 0.00 86
20220517224109 56 249 0.0 1.0 0.00 0.00 0.00 86
20220517222052 57 84 0.0 1.0 0.00 0.00 0.00 85
20220517220104 58 91 0.0 0.0 0.00 0.00 0.00 84
20220517215043 58 89 0.0 0.0 0.00 0.00 0.00 83
20220517214041 58 92 0.0 0.0 0.00 0.00 0.00 83
20220517213056 58 94 0.0 1.0 0.00 0.00 0.00 82
20220517212033 59 88 0.0 0.0 0.00 0.00 0.00 82
20220517211042 59 94 0.0 1.0 0.00 0.00 0.00 82
20220517210119 59 86 0.0 1.0 0.00 0.00 0.00 81
20220517205031 60 87 0.0 1.0 0.00 0.00 0.00 80
20220517204039 60 88 0.0 0.0 0.00 0.00 0.00 80
20220517203059 61 89 0.0 1.0 0.00 0.00 0.00 80
20220517202253 61 86 0.0 0.0 0.00 0.00 0.00 77
20220517200122 62 91 0.0 0.0 0.00 0.00 0.00 76
20220517195045 62 87 0.0 0.0 0.00 0.00 0.00 75
20220517194039 64 91 0.0 0.0 0.00 0.00 0.00 73
20220517193109 64 95 0.0 0.0 0.00 0.00 0.00 73
20220517192106 65 87 0.0 0.0 0.00 0.00 0.00 72
20220517191104 66 90 0.0 1.0 0.00 0.00 0.00 70
20220517185048 68 87 0.0 2.0 0.00 0.00 0.00 65
20220517184041 68 17 0.0 1.0 0.00 0.00 0.00 63
20220517183046 69 28 0.0 1.0 0.00 0.00 0.00 61
20220517182056 70 17 0.0 2.0 0.00 0.00 0.00 61
20220517181058 70 28 0.0 2.0 0.00 0.00 0.00 59
20220517175105 71 360 1.0 2.0 0.00 0.00 0.00 57
20220517174106 71 5 2.0 4.0 0.00 0.00 0.00 56
20220517173027 71 355 1.0 4.0 0.00 0.00 0.00 56
20220517172054 72 354 1.0 3.0 0.00 0.00 0.00 55
20220517171055 72 355 2.0 5.0 0.00 0.00 0.00 55